| time (UTC) | temp F | wind direction | speed MPH | gust MPH | rain 1hr in | rain 24hr in | rain mn in | humidity % | barometer mb |
| 20260509204525 | 60 | 308 | 11.0 | 20.0 | 0.00 | 0.00 | 0.00 | 31 | 1010.4 |
| 20260509203019 | 59 | 290 | 12.0 | 20.0 | 0.00 | 0.00 | 0.00 | 31 | 1010.3 |
| 20260509201518 | 58 | 289 | 16.0 | 22.0 | 0.00 | 0.00 | 0.00 | 31 | 1010.3 |
| 20260509200018 | 58 | 305 | 11.0 | 17.0 | 0.00 | 0.00 | 0.00 | 30 | 1010.3 |
| 20260509194617 | 60 | 287 | 12.0 | 18.0 | 0.00 | 0.00 | 0.00 | 30 | 1010.3 |
| 20260509193017 | 60 | 313 | 9.0 | 29.0 | 0.00 | 0.00 | 0.00 | 29 | 1010.4 |
| 20260509191519 | 60 | 308 | 8.0 | 24.0 | 0.00 | 0.00 | 0.00 | 28 | 1010.4 |
| 20260509190015 | 60 | 279 | 16.0 | 22.0 | 0.00 | 0.00 | 0.00 | 30 | 1010.2 |
| 20260509184515 | 60 | 281 | 15.0 | 22.0 | 0.00 | 0.00 | 0.00 | 30 | 1010.4 |
| 20260509183012 | 58 | 309 | 0.0 | 14.0 | 0.00 | 0.00 | 0.00 | 33 | 1010.4 |
| 20260509181508 | 58 | 163 | 0.0 | 0.0 | 0.00 | 0.00 | 0.00 | 36 | 1010.2 |
| 20260509180006 | 58 | 61 | 0.0 | 0.0 | 0.00 | 0.00 | 0.00 | 36 | 1010.1 |
| 20260509174506 | 57 | 271 | 3.0 | 12.0 | 0.00 | 0.00 | 0.00 | 36 | 1010.1 |
| 20260509173004 | 57 | 297 | 0.0 | 13.0 | 0.00 | 0.00 | 0.00 | 36 | 1010.1 |
| 20260509171504 | 57 | 306 | 2.0 | 8.0 | 0.00 | 0.00 | 0.00 | 37 | 1010.0 |
| 20260509170002 | 56 | 62 | 1.0 | 10.0 | 0.00 | 0.00 | 0.00 | 37 | 1010.1 |
| 20260509164559 | 56 | 323 | 3.0 | 12.0 | 0.00 | 0.00 | 0.00 | 38 | 1010.1 |
| 20260509163058 | 55 | 283 | 0.0 | 11.0 | 0.00 | 0.00 | 0.00 | 37 | 1010.1 |
| 20260509161558 | 55 | 262 | 0.0 | 6.0 | 0.00 | 0.00 | 0.00 | 37 | 1010.0 |
| 20260509160056 | 55 | 329 | 0.0 | 0.0 | 0.00 | 0.00 | 0.00 | 37 | 1010.1 |
| 20260509154552 | 53 | 299 | 0.0 | 0.0 | 0.00 | 0.00 | 0.00 | 35 | 1010.1 |
| 20260509153053 | 54 | 344 | 0.0 | 2.0 | 0.00 | 0.00 | 0.00 | 35 | 1010.1 |
| 20260509151554 | 53 | 65 | 1.0 | 4.0 | 0.00 | 0.00 | 0.00 | 36 | 1010.1 |
| 20260509150045 | 53 | 209 | 0.0 | 0.0 | 0.00 | 0.00 | 0.00 | 41 | 1010.2 |
| 20260509144600 | 51 | 215 | 0.0 | 0.0 | 0.00 | 0.00 | 0.00 | 45 | 1010.3 |
| 20260509143044 | 49 | 215 | 0.0 | 0.0 | 0.00 | 0.00 | 0.00 | 50 | 1010.4 |
| 20260509141540 | 46 | 215 | 0.0 | 0.0 | 0.00 | 0.00 | 0.00 | 53 | 1010.5 |
| 20260509140036 | 45 | 215 | 0.0 | 0.0 | 0.00 | 0.00 | 0.00 | 56 | 1010.7 |
| 20260509134557 | 42 | 215 | 0.0 | 0.0 | 0.00 | 0.00 | 0.00 | 61 | 1010.7 |
| 20260509133034 | 41 | 215 | 0.0 | 0.0 | 0.00 | 0.00 | 0.00 | 60 | 1010.6 |
| 20260509131527 | 39 | 215 | 0.0 | 0.0 | 0.00 | 0.00 | 0.00 | 64 | 1010.5 |
| 20260509130031 | 38 | 215 | 0.0 | 2.0 | 0.00 | 0.00 | 0.00 | 64 | 1010.4 |
| 20260509124525 | 38 | 215 | 0.0 | 2.0 | 0.00 | 0.00 | 0.00 | 61 | 1010.1 |
| 20260509123022 | 38 | 215 | 0.0 | 4.0 | 0.00 | 0.00 | 0.00 | 58 | 1010.0 |
| 20260509121537 | 39 | 215 | 0.0 | 1.0 | 0.00 | 0.00 | 0.00 | 56 | 1009.9 |
| 20260509120016 | 39 | 215 | 0.0 | 1.0 | 0.00 | 0.00 | 0.00 | 54 | 1009.8 |
| 20260509114527 | 40 | 131 | 0.0 | 1.0 | 0.00 | 0.00 | 0.00 | 51 | 1009.5 |
| 20260509113022 | 39 | 196 | 1.0 | 5.0 | 0.00 | 0.00 | 0.00 | 55 | 1009.3 |
| 20260509111511 | 40 | 196 | 0.0 | 2.0 | 0.00 | 0.00 | 0.00 | 52 | 1009.1 |
| 20260509110007 | 40 | 196 | 0.0 | 0.0 | 0.00 | 0.00 | 0.00 | 52 | 1008.9 |
| 20260509104506 | 40 | 196 | 0.0 | 5.0 | 0.00 | 0.00 | 0.00 | 51 | 1008.8 |
| 20260509103003 | 41 | 197 | 0.0 | 5.0 | 0.00 | 0.00 | 0.00 | 49 | 1008.7 |
| 20260509101624 | 42 | 196 | 2.0 | 4.0 | 0.00 | 0.00 | 0.00 | 47 | 1008.6 |
| 20260509100058 | 43 | 196 | 1.0 | 6.0 | 0.00 | 0.00 | 0.00 | 45 | 1008.4 |
| 20260509094601 | 45 | 196 | 2.0 | 7.0 | 0.00 | 0.00 | 0.00 | 41 | 1008.2 |
| 20260509093049 | 46 | 189 | 0.0 | 5.0 | 0.00 | 0.00 | 0.00 | 36 | 1008.1 |
| 20260509091547 | 47 | 186 | 0.0 | 4.0 | 0.00 | 0.00 | 0.00 | 35 | 1008.0 |
| 20260509090048 | 48 | 176 | 1.0 | 4.0 | 0.00 | 0.00 | 0.00 | 32 | 1007.8 |
| 20260509084547 | 48 | 200 | 0.0 | 5.0 | 0.00 | 0.00 | 0.00 | 34 | 1007.8 |
| 20260509083043 | 48 | 200 | 0.0 | 6.0 | 0.00 | 0.00 | 0.00 | 33 | 1007.9 |
| 20260509081544 | 49 | 202 | 0.0 | 6.0 | 0.00 | 0.00 | 0.00 | 31 | 1007.8 |
| 20260509080041 | 49 | 205 | 0.0 | 6.0 | 0.00 | 0.00 | 0.00 | 32 | 1007.7 |
| 20260509074546 | 49 | 228 | 0.0 | 6.0 | 0.00 | 0.00 | 0.00 | 32 | 1007.7 |
| 20260509073040 | 48 | 192 | 0.0 | 6.0 | 0.00 | 0.00 | 0.00 | 37 | 1007.6 |
| 20260509071540 | 51 | 192 | 0.0 | 4.0 | 0.00 | 0.00 | 0.00 | 32 | 1007.6 |
| 20260509070036 | 50 | 190 | 0.0 | 7.0 | 0.00 | 0.00 | 0.00 | 32 | 1007.5 |
| 20260509064541 | 50 | 188 | 0.0 | 5.0 | 0.00 | 0.00 | 0.00 | 33 | 1007.6 |
| 20260509063031 | 51 | 123 | 0.0 | 6.0 | 0.00 | 0.00 | 0.00 | 30 | 1007.7 |
| 20260509061531 | 51 | 162 | 1.0 | 6.0 | 0.00 | 0.00 | 0.00 | 30 | 1007.9 |
| 20260509060033 | 53 | 186 | 1.0 | 7.0 | 0.00 | 0.00 | 0.00 | 28 | 1008.1 |
| 20260509054529 | 50 | 87 | 0.0 | 5.0 | 0.00 | 0.00 | 0.00 | 35 | 1008.1 |
| 20260509053024 | 51 | 126 | 0.0 | 4.0 | 0.00 | 0.00 | 0.00 | 37 | 1008.1 |
| 20260509051523 | 50 | 182 | 0.0 | 4.0 | 0.00 | 0.00 | 0.00 | 42 | 1008.0 |
| 20260509050023 | 51 | 182 | 0.0 | 5.0 | 0.00 | 0.00 | 0.00 | 40 | 1007.9 |
| 20260509044522 | 51 | 178 | 0.0 | 1.0 | 0.00 | 0.00 | 0.00 | 43 | 1007.7 |
| 20260509043022 | 55 | 243 | 0.0 | 5.0 | 0.00 | 0.00 | 0.00 | 35 | 1007.6 |
| 20260509041531 | 55 | 172 | 0.0 | 3.0 | 0.00 | 0.00 | 0.00 | 36 | 1007.5 |
| 20260509040020 | 54 | 177 | 2.0 | 9.0 | 0.00 | 0.00 | 0.00 | 40 | 1007.8 |
| 20260509034520 | 52 | 192 | 0.0 | 5.0 | 0.00 | 0.00 | 0.00 | 44 | 1007.8 |
| 20260509033020 | 52 | 192 | 0.0 | 0.0 | 0.00 | 0.00 | 0.00 | 45 | 1007.5 |
| 20260509031526 | 52 | 198 | 0.0 | 6.0 | 0.00 | 0.00 | 0.00 | 46 | 1007.1 |
| 20260509030021 | 52 | 202 | 4.0 | 6.0 | 0.00 | 0.00 | 0.00 | 47 | 1006.8 |
| 20260509024519 | 53 | 204 | 0.0 | 0.0 | 0.00 | 0.00 | 0.00 | 47 | 1006.7 |
| 20260509023023 | 54 | 222 | 0.0 | 0.0 | 0.00 | 0.00 | 0.00 | 48 | 1006.6 |
| 20260509021518 | 56 | 243 | 0.0 | 0.0 | 0.00 | 0.00 | 0.00 | 44 | 1006.5 |
| 20260509020027 | 58 | 272 | 4.0 | 10.0 | 0.00 | 0.00 | 0.00 | 38 | 1006.3 |
| 20260509014519 | 59 | 270 | 4.0 | 7.0 | 0.00 | 0.00 | 0.00 | 39 | 1006.4 |
| 20260509013032 | 61 | 283 | 0.0 | 7.0 | 0.00 | 0.00 | 0.00 | 37 | 1006.4 |
| 20260509011516 | 61 | 267 | 0.0 | 7.0 | 0.00 | 0.00 | 0.00 | 35 | 1006.4 |
| 20260509010016 | 63 | 292 | 1.0 | 12.0 | 0.00 | 0.00 | 0.00 | 31 | 1006.4 |
| 20260509004518 | 64 | 263 | 11.0 | 19.0 | 0.00 | 0.00 | 0.00 | 28 | 1006.3 |
| 20260509003015 | 65 | 289 | 11.0 | 19.0 | 0.00 | 0.00 | 0.00 | 28 | 1006.4 |
| 20260509001514 | 65 | 271 | 14.0 | 19.0 | 0.00 | 0.00 | 0.00 | 29 | 1006.3 |
| 20260509000013 | 66 | 290 | 10.0 | 17.0 | 0.00 | 0.00 | 0.00 | 30 | 1006.2 |
| 20260508234513 | 67 | 267 | 12.0 | 19.0 | 0.00 | 0.00 | 0.00 | 30 | 1006.2 |
| 20260508233014 | 68 | 280 | 14.0 | 17.0 | 0.00 | 0.00 | 0.00 | 29 | 1006.0 |
| 20260508231510 | 66 | 263 | 9.0 | 19.0 | 0.00 | 0.00 | 0.00 | 30 | 1005.9 |
| 20260508230010 | 67 | 261 | 14.0 | 22.0 | 0.00 | 0.00 | 0.00 | 29 | 1005.9 |
| 20260508224517 | 66 | 294 | 10.0 | 20.0 | 0.00 | 0.00 | 0.00 | 29 | 1005.9 |
| 20260508223008 | 66 | 276 | 12.0 | 18.0 | 0.00 | 0.00 | 0.00 | 28 | 1006.1 |
| 20260508221507 | 67 | 311 | 8.0 | 19.0 | 0.00 | 0.00 | 0.00 | 30 | 1006.4 |
| 20260508220005 | 67 | 313 | 0.0 | 12.0 | 0.00 | 0.00 | 0.00 | 29 | 1006.5 |
| 20260508214516 | 66 | 276 | 14.0 | 18.0 | 0.00 | 0.00 | 0.00 | 31 | 1006.6 |
| 20260508213004 | 67 | 289 | 8.0 | 16.0 | 0.00 | 0.00 | 0.00 | 29 | 1006.6 |
| 20260508211505 | 67 | 241 | 8.0 | 19.0 | 0.00 | 0.00 | 0.00 | 30 | 1006.8 |
| 20260508210100 | 67 | 286 | 2.0 | 15.0 | 0.00 | 0.00 | 0.00 | 30 | 1007.0 |